Buenos Aires, Argentina

1:10 AM America on June 19, 2018 (GMT +0000)
Jorge Newbery Aeroparque

Weather History for SABE - June, 2018

Change the Weather History Date:

Thursday, June 14, 2018

  Actual Average Record
Temperature  
Mean Temperature 46 °F -  
Max Temperature 52 °F 59 °F 71 °F (2000)
Min Temperature 41 °F 47 °F 41 °F (2018)
Degree Days  
Heating Degree Days 18    
Moisture  
Dew Point 36 °F    
Average Humidity 66    
Maximum Humidity 87    
Minimum Humidity 40    
Precipitation  
Precipitation 0.00 in 0.08 in - ()
Sea Level Pressure  
Sea Level Pressure 30.39 in    
Wind  
Wind Speed 5 mph ()    
Max Wind Speed 8 mph    
Max Gust Speed -    
Visibility 6.1 miles    
Events      
Averages and records for this station are not official NWS values.
T = Trace of Precipitation, MM = Missing Value Source: Averaged Metar Reports

Daily Weather History Graph

Daily Weather History Graph

Search for Another Location

Airport or City:

Astronomy

Jun. 14, 2018 Rise Set
Actual Time 7:58 AM -03 5:49 PM -03
Civil Twilight 7:30 AM -03 6:17 PM -03
Nautical Twilight 6:58 AM -03 6:49 PM -03
Astronomical Twilight 6:28 AM -03 7:19 PM -03
Moon 8:34 AM -03 (6/14) 6:58 PM -03 (6/14)
Length of Visible Light 10h 47m
Length of Day
9h 51m
New Moon, 1% of the Moon is Illuminated
Jun 14
New Moon
Jun 20
First Quarter
Jun 28
Full
Jul 6
Last Quarter
Jul 12
New

Hourly Weather History & Observations

Time (-03) Temp. Windchill Dew Point Humidity Pressure Visibility Wind Dir Wind Speed Gust Speed Precip Events Conditions
12:00 AM 46 °F - 38 °F 65% 30.35 in 6 mi West 5.8 mph - -   Mostly Cloudy
12:00 AM 46.4 °F 43.5 °F 37.4 °F 71% 30.33 in 6.2 mi WSW 5.8 mph - N/A   Mostly Cloudy
1:00 AM 44.6 °F 41.4 °F 39.2 °F 81% 30.33 in 6.2 mi SW 5.8 mph - N/A   Overcast
2:00 AM 44.6 °F 42.2 °F 37.4 °F 76% 30.36 in - WSW 4.6 mph - N/A   Clear
3:00 AM 43 °F - 38 °F 76% 30.37 in 6 mi West 3.5 mph - -  
3:00 AM 42.8 °F 41.1 °F 37.4 °F 81% 30.36 in - West 3.5 mph - N/A   Clear
4:00 AM 41.0 °F 38.0 °F 37.4 °F 87% 30.36 in - WSW 4.6 mph - N/A   Clear
5:00 AM 41.0 °F 38.0 °F 37.4 °F 87% 30.36 in 6.2 mi WSW 4.6 mph - N/A   Mostly Cloudy
6:00 AM 43 °F - 37 °F 74% 30.36 in 6 mi SW 5.8 mph - -   Partly Cloudy
6:00 AM 42.8 °F 39.3 °F 37.4 °F 81% 30.33 in 6.2 mi SW 5.8 mph - N/A   Scattered Clouds
7:00 AM 42.8 °F 39.3 °F 39.2 °F 87% 30.36 in 6.2 mi SW 5.8 mph - N/A   Partly Cloudy
8:00 AM 42.8 °F 38.6 °F 39.2 °F 87% 30.39 in 6.2 mi SW 6.9 mph - N/A   Partly Cloudy
9:00 AM 44 °F - 38 °F 73% 30.41 in 6 mi SW 4.6 mph - -   Partly Cloudy
9:00 AM 44.6 °F 42.2 °F 39.2 °F 81% 30.39 in 6.2 mi WSW 4.6 mph - N/A   Scattered Clouds
10:00 AM 46.4 °F 44.3 °F 39.2 °F 76% 30.42 in 6.2 mi SW 4.6 mph - N/A   Scattered Clouds
11:00 AM 48.2 °F - 37.4 °F 66% 30.42 in 6.2 mi SW 5.8 mph - N/A   Scattered Clouds
12:00 PM 50 °F - 36 °F 48% 30.43 in 6 mi WSW 5.8 mph - -   Scattered Clouds
12:00 PM 50.0 °F - 35.6 °F 58% 30.42 in 6.2 mi West 5.8 mph - N/A   Partly Cloudy
1:00 PM 51.8 °F - 33.8 °F 50% 30.39 in 6.2 mi WSW 6.9 mph - N/A   Scattered Clouds
2:00 PM 51.8 °F - 35.6 °F 54% 30.36 in 6.2 mi West 8.1 mph - N/A   Scattered Clouds
3:00 PM 52 °F - 35 °F 40% 30.38 in 6 mi SW 6.9 mph - -   Scattered Clouds
3:00 PM 53.6 °F - 35.6 °F 51% 30.36 in 6.2 mi WSW 6.9 mph - N/A   Partly Cloudy
4:00 PM 51.8 °F - 35.6 °F 54% 30.36 in 6.2 mi SW 5.8 mph - N/A   Scattered Clouds
5:00 PM 51.8 °F - 35.6 °F 54% 30.39 in 6.2 mi WSW 4.6 mph - N/A   Scattered Clouds
6:00 PM 49 °F - 34 °F 44% 30.41 in 6 mi SSW 6.9 mph - -   Partly Cloudy
6:00 PM 50.0 °F - 33.8 °F 54% 30.39 in 6.2 mi SSW 6.9 mph - N/A   Scattered Clouds
7:00 PM 48.2 °F - 33.8 °F 58% 30.42 in 6.2 mi SSW 4.6 mph - N/A   Scattered Clouds
8:00 PM 48.2 °F - 35.6 °F 62% 30.42 in 6.2 mi SW 4.6 mph - N/A   Scattered Clouds
9:00 PM 47 °F - 35 °F 53% 30.45 in 6 mi SW 3.5 mph - -   Partly Cloudy
9:00 PM 48.2 °F - 35.6 °F 62% 30.45 in 6.2 mi SW 3.5 mph - N/A   Scattered Clouds
10:00 PM 46.4 °F 45.2 °F 33.8 °F 62% 30.45 in 6.2 mi SW 3.5 mph - N/A   Partly Cloudy
11:00 PM 46.4 °F 45.2 °F 33.8 °F 62% - - WSW 3.5 mph - N/A   Clear